Location: Blairvadach
(56.2780°N, 6.9720°W)
Time: 11:47:40
(UTC+00:00)

Envisat - Pass Details

Date: 25 February 2019
Orbit: 764 x 766 km, 98.2° (Epoch: 24 March)

Event Time Altitude Azimuth Distance (km) Brightness Sun altitude
Rises 20:49:36 0° 225° (SW) 3,229 6.5 -24.9°
Reaches altitude 10° 20:53:27 10° 255° (WSW) 2,309 6.1 -25.4°
Maximum altitude 20:55:29 12° 279° (W) 2,156 6.2 -25.7°
Drops below altitude 10° 20:57:31 10° 303° (WNW) 2,315 6.5 -25.9°
Sets 21:01:26 0° 333° (NNW) 3,248 7.0 -26.4°
